Information on these data can be found in provided Readme document
Contact Info: Zachary Fasnacht (zachary.fasnacht@ssaihq.com); Nickolay Krotkov (nickolay.a.krotkov@nasa.gov); Lok Lamsal (lok.lamsal@nasa.gov)

FillValue: -999.
ScaleFactor: 1e15
Units: molecules/cm^2

Date(yyyy-mm-dd),City,Country,LonCenter,LatCenter,BoundingCoordinates,Median,Q1,Q3,Mean,Baseline_Median,Baseline_Q1,Baseline_Q3,Baseline_Mean,NumGoodSamples,NumTotalSamples
2015-01-01,Santiago,Chile,-70.7501,-33.4667,[-71.2501 -33.9667 -70.2501 -32.9667],1.644,0.596,2.713,1.675,1.689,0.831,2.91,1.913,278.0,572.0
2015-01-02,Santiago,Chile,-70.7501,-33.4667,[-71.2501 -33.9667 -70.2501 -32.9667],1.691,0.698,2.767,1.705,1.75,0.842,2.928,1.955,274.0,563.0
2015-01-03,Santiago,Chile,-70.7501,-33.4667,[-71.2501 -33.9667 -70.2501 -32.9667],1.691,0.698,2.767,1.708,1.767,0.869,2.918,1.957,295.0,581.0
2015-01-04,Santiago,Chile,-70.7501,-33.4667,[-71.2501 -33.9667 -70.2501 -32.9667],1.654,0.757,2.805,1.705,1.742,0.842,2.914,1.929,281.0,571.0
2015-01-05,Santiago,Chile,-70.7501,-33.4667,[-71.2501 -33.9667 -70.2501 -32.9667],1.692,0.757,2.839,1.725,1.785,0.864,2.989,1.998,289.0,571.0
2015-01-06,Santiago,Chile,-70.7501,-33.4667,[-71.2501 -33.9667 -70.2501 -32.9667],1.709,0.769,2.839,1.717,1.813,0.906,3.033,2.009,281.0,569.0
2015-01-07,Santiago,Chile,-70.7501,-33.4667,[-71.2501 -33.9667 -70.2501 -32.9667],1.722,0.789,2.895,1.797,1.851,0.846,3.115,2.02,309.0,560.0
2015-01-08,Santiago,Chile,-70.7501,-33.4667,[-71.2501 -33.9667 -70.2501 -32.9667],1.709,0.86,2.892,1.867,1.855,0.871,3.067,2.05,288.0,563.0
2015-01-09,Santiago,Chile,-70.7501,-33.4667,[-71.2501 -33.9667 -70.2501 -32.9667],1.709,0.86,2.892,1.867,1.891,0.947,3.114,2.086,288.0,517.0
2015-01-10,Santiago,Chile,-70.7501,-33.4667,[-71.2501 -33.9667 -70.2501 -32.9667],1.569,0.769,2.839,1.797,1.87,0.895,3.108,2.061,257.0,525.0
2015-01-11,Santiago,Chile,-70.7501,-33.4667,[-71.2501 -33.9667 -70.2501 -32.9667],1.545,0.767,2.611,1.724,1.842,0.903,3.087,2.052,247.0,522.0
2015-01-12,Santiago,Chile,-70.7501,-33.4667,[-71.2501 -33.9667 -70.2501 -32.9667],1.603,0.767,2.767,1.796,1.937,0.906,3.171,2.14,245.0,531.0
2015-01-13,Santiago,Chile,-70.7501,-33.4667,[-71.2501 -33.9667 -70.2501 -32.9667],1.654,0.769,2.767,1.789,1.894,0.861,3.169,2.086,247.0,533.0
2015-01-14,Santiago,Chile,-70.7501,-33.4667,[-71.2501 -33.9667 -70.2501 -32.9667],1.615,0.769,2.767,1.743,1.898,0.909,3.165,2.092,264.0,522.0
2015-01-15,Santiago,Chile,-70.7501,-33.4667,[-71.2501 -33.9667 -70.2501 -32.9667],1.661,0.767,2.839,1.787,1.834,0.893,3.137,2.049,243.0,522.0
2015-01-16,Santiago,Chile,-70.7501,-33.4667,[-71.2501 -33.9667 -70.2501 -32.9667],1.654,0.812,2.738,1.809,1.847,0.902,3.121,2.054,275.0,513.0
2015-01-17,Santiago,Chile,-70.7501,-33.4667,[-71.2501 -33.9667 -70.2501 -32.9667],1.651,0.812,2.611,1.785,1.888,0.912,3.136,2.097,245.0,528.0
2015-01-18,Santiago,Chile,-70.7501,-33.4667,[-71.2501 -33.9667 -70.2501 -32.9667],1.508,0.684,2.455,1.562,1.863,0.877,3.141,2.079,242.0,515.0
2015-01-19,Santiago,Chile,-70.7501,-33.4667,[-71.2501 -33.9667 -70.2501 -32.9667],1.498,0.678,2.436,1.521,1.896,0.891,3.13,2.069,264.0,532.0
2015-01-20,Santiago,Chile,-70.7501,-33.4667,[-71.2501 -33.9667 -70.2501 -32.9667],1.482,0.679,2.434,1.51,1.846,0.841,3.082,2.021,248.0,522.0
2015-01-21,Santiago,Chile,-70.7501,-33.4667,[-71.2501 -33.9667 -70.2501 -32.9667],1.482,0.678,2.455,1.506,1.861,0.877,3.065,2.032,255.0,524.0
2015-01-22,Santiago,Chile,-70.7501,-33.4667,[-71.2501 -33.9667 -70.2501 -32.9667],1.406,0.573,2.403,1.425,1.911,0.912,3.12,2.063,247.0,522.0
2015-01-23,Santiago,Chile,-70.7501,-33.4667,[-71.2501 -33.9667 -70.2501 -32.9667],1.406,0.533,2.434,1.444,1.892,0.917,3.124,2.056,273.0,515.0
2015-01-24,Santiago,Chile,-70.7501,-33.4667,[-71.2501 -33.9667 -70.2501 -32.9667],1.406,0.533,2.434,1.444,1.92,0.928,3.144,2.075,273.0,559.0
2015-01-25,Santiago,Chile,-70.7501,-33.4667,[-71.2501 -33.9667 -70.2501 -32.9667],1.406,0.54,2.403,1.43,1.898,0.932,3.071,2.045,308.0,555.0
2015-01-26,Santiago,Chile,-70.7501,-33.4667,[-71.2501 -33.9667 -70.2501 -32.9667],1.351,0.537,2.434,1.419,1.909,0.965,3.16,2.072,287.0,563.0
2015-01-27,Santiago,Chile,-70.7501,-33.4667,[-71.2501 -33.9667 -70.2501 -32.9667],1.499,0.537,2.199,1.417,1.862,0.933,2.995,1.985,295.0,563.0
2015-01-28,Santiago,Chile,-70.7501,-33.4667,[-71.2501 -33.9667 -70.2501 -32.9667],1.482,0.537,2.238,1.421,1.879,0.935,2.96,1.994,301.0,571.0
2015-01-29,Santiago,Chile,-70.7501,-33.4667,[-71.2501 -33.9667 -70.2501 -32.9667],1.482,0.537,2.223,1.418,1.836,0.834,2.915,1.951,307.0,572.0
2015-01-30,Santiago,Chile,-70.7501,-33.4667,[-71.2501 -33.9667 -70.2501 -32.9667],1.458,0.537,2.171,1.435,1.799,0.84,2.828,1.922,319.0,562.0
2015-01-31,Santiago,Chile,-70.7501,-33.4667,[-71.2501 -33.9667 -70.2501 -32.9667],1.193,0.411,2.097,1.342,1.714,0.797,2.798,1.904,294.0,563.0
2015-02-01,Santiago,Chile,-70.7501,-33.4667,[-71.2501 -33.9667 -70.2501 -32.9667],1.193,0.372,2.097,1.323,1.701,0.796,2.67,1.831,327.0,553.0
2015-02-02,Santiago,Chile,-70.7501,-33.4667,[-71.2501 -33.9667 -70.2501 -32.9667],1.353,0.482,2.223,1.471,1.748,0.833,2.691,1.861,297.0,568.0
2015-02-03,Santiago,Chile,-70.7501,-33.4667,[-71.2501 -33.9667 -70.2501 -32.9667],1.5,0.54,2.53,1.669,1.761,0.848,2.773,1.912,288.0,558.0
2015-02-04,Santiago,Chile,-70.7501,-33.4667,[-71.2501 -33.9667 -70.2501 -32.9667],1.586,0.597,2.53,1.713,1.754,0.84,2.725,1.879,309.0,576.0
2015-02-05,Santiago,Chile,-70.7501,-33.4667,[-71.2501 -33.9667 -70.2501 -32.9667],1.524,0.544,2.518,1.701,1.727,0.764,2.729,1.861,295.0,566.0
2015-02-06,Santiago,Chile,-70.7501,-33.4667,[-71.2501 -33.9667 -70.2501 -32.9667],1.593,0.603,2.53,1.732,1.731,0.801,2.728,1.873,302.0,565.0
2015-02-07,Santiago,Chile,-70.7501,-33.4667,[-71.2501 -33.9667 -70.2501 -32.9667],1.643,0.663,2.524,1.734,1.764,0.854,2.806,1.92,296.0,563.0
2015-02-08,Santiago,Chile,-70.7501,-33.4667,[-71.2501 -33.9667 -70.2501 -32.9667],1.643,0.663,2.53,1.736,1.73,0.826,2.782,1.899,317.0,555.0
2015-02-09,Santiago,Chile,-70.7501,-33.4667,[-71.2501 -33.9667 -70.2501 -32.9667],1.7,0.695,2.615,1.809,1.725,0.824,2.761,1.914,282.0,558.0
2015-02-10,Santiago,Chile,-70.7501,-33.4667,[-71.2501 -33.9667 -70.2501 -32.9667],1.7,0.695,2.615,1.809,1.691,0.767,2.696,1.879,282.0,513.0
2015-02-11,Santiago,Chile,-70.7501,-33.4667,[-71.2501 -33.9667 -70.2501 -32.9667],1.666,0.695,2.746,1.872,1.651,0.737,2.789,1.9,251.0,520.0
2015-02-12,Santiago,Chile,-70.7501,-33.4667,[-71.2501 -33.9667 -70.2501 -32.9667],1.964,0.894,3.123,2.096,1.75,0.844,2.815,1.959,249.0,516.0
2015-02-13,Santiago,Chile,-70.7501,-33.4667,[-71.2501 -33.9667 -70.2501 -32.9667],2.046,0.906,3.242,2.174,1.754,0.92,2.898,1.996,224.0,526.0
2015-02-14,Santiago,Chile,-70.7501,-33.4667,[-71.2501 -33.9667 -70.2501 -32.9667],2.046,0.995,3.147,2.166,1.759,0.966,2.937,2.035,225.0,526.0
2015-02-15,Santiago,Chile,-70.7501,-33.4667,[-71.2501 -33.9667 -70.2501 -32.9667],1.964,0.892,3.069,2.06,1.751,0.932,2.957,2.019,242.0,515.0
2015-02-16,Santiago,Chile,-70.7501,-33.4667,[-71.2501 -33.9667 -70.2501 -32.9667],2.288,1.136,3.449,2.277,1.786,0.953,3.018,2.045,215.0,517.0
2015-02-17,Santiago,Chile,-70.7501,-33.4667,[-71.2501 -33.9667 -70.2501 -32.9667],2.288,1.052,3.563,2.268,1.775,0.938,3.03,2.042,226.0,509.0
2015-02-18,Santiago,Chile,-70.7501,-33.4667,[-71.2501 -33.9667 -70.2501 -32.9667],2.296,1.052,3.465,2.193,1.729,0.907,2.96,1.978,201.0,522.0
2015-02-19,Santiago,Chile,-70.7501,-33.4667,[-71.2501 -33.9667 -70.2501 -32.9667],2.128,1.134,3.025,2.152,1.772,0.959,2.991,2.051,199.0,510.0
2015-02-20,Santiago,Chile,-70.7501,-33.4667,[-71.2501 -33.9667 -70.2501 -32.9667],2.163,1.101,3.069,2.232,1.779,0.961,3.008,2.06,221.0,527.0
2015-02-21,Santiago,Chile,-70.7501,-33.4667,[-71.2501 -33.9667 -70.2501 -32.9667],2.125,1.071,3.025,2.182,1.777,0.933,3.013,2.044,201.0,517.0
2015-02-22,Santiago,Chile,-70.7501,-33.4667,[-71.2501 -33.9667 -70.2501 -32.9667],2.118,1.068,3.043,2.188,1.788,0.891,2.93,2.028,208.0,519.0
2015-02-23,Santiago,Chile,-70.7501,-33.4667,[-71.2501 -33.9667 -70.2501 -32.9667],2.125,1.101,3.069,2.259,1.841,0.928,3.064,2.102,206.0,519.0
2015-02-24,Santiago,Chile,-70.7501,-33.4667,[-71.2501 -33.9667 -70.2501 -32.9667],2.126,1.068,3.069,2.248,1.834,0.931,3.132,2.119,235.0,511.0
2015-02-25,Santiago,Chile,-70.7501,-33.4667,[-71.2501 -33.9667 -70.2501 -32.9667],2.126,1.068,3.069,2.248,1.851,0.944,3.092,2.096,235.0,558.0
2015-02-26,Santiago,Chile,-70.7501,-33.4667,[-71.2501 -33.9667 -70.2501 -32.9667],2.27,1.134,3.153,2.329,1.917,0.989,3.118,2.154,270.0,555.0
2015-02-27,Santiago,Chile,-70.7501,-33.4667,[-71.2501 -33.9667 -70.2501 -32.9667],2.089,1.013,3.05,2.169,1.933,0.938,3.189,2.163,240.0,567.0
2015-02-28,Santiago,Chile,-70.7501,-33.4667,[-71.2501 -33.9667 -70.2501 -32.9667],2.125,1.101,3.025,2.184,1.993,0.973,3.242,2.243,270.0,565.0
2015-03-01,Santiago,Chile,-70.7501,-33.4667,[-71.2501 -33.9667 -70.2501 -32.9667],2.162,1.101,3.082,2.23,2.039,1.0,3.256,2.271,283.0,574.0
2015-03-02,Santiago,Chile,-70.7501,-33.4667,[-71.2501 -33.9667 -70.2501 -32.9667],2.265,1.313,3.192,2.366,2.024,1.048,3.333,2.308,285.0,575.0
2015-03-03,Santiago,Chile,-70.7501,-33.4667,[-71.2501 -33.9667 -70.2501 -32.9667],2.285,1.313,3.335,2.443,2.164,1.097,3.494,2.403,301.0,562.0
2015-03-04,Santiago,Chile,-70.7501,-33.4667,[-71.2501 -33.9667 -70.2501 -32.9667],2.285,1.482,3.192,2.461,2.18,1.112,3.51,2.406,296.0,562.0
2015-03-05,Santiago,Chile,-70.7501,-33.4667,[-71.2501 -33.9667 -70.2501 -32.9667],2.163,1.446,3.192,2.428,2.19,1.143,3.544,2.475,330.0,554.0
2015-03-06,Santiago,Chile,-70.7501,-33.4667,[-71.2501 -33.9667 -70.2501 -32.9667],2.243,1.34,3.442,2.473,2.209,1.117,3.63,2.499,300.0,569.0
2015-03-07,Santiago,Chile,-70.7501,-33.4667,[-71.2501 -33.9667 -70.2501 -32.9667],2.157,1.332,3.192,2.391,2.262,1.121,3.591,2.52,298.0,559.0
2015-03-08,Santiago,Chile,-70.7501,-33.4667,[-71.2501 -33.9667 -70.2501 -32.9667],2.153,1.304,3.277,2.379,2.243,1.139,3.639,2.573,324.0,578.0
2015-03-09,Santiago,Chile,-70.7501,-33.4667,[-71.2501 -33.9667 -70.2501 -32.9667],2.131,1.313,3.192,2.374,2.185,1.167,3.642,2.588,307.0,566.0
2015-03-10,Santiago,Chile,-70.7501,-33.4667,[-71.2501 -33.9667 -70.2501 -32.9667],2.153,1.313,3.41,2.432,2.152,1.12,3.615,2.56,315.0,565.0
2015-03-11,Santiago,Chile,-70.7501,-33.4667,[-71.2501 -33.9667 -70.2501 -32.9667],2.153,1.344,3.41,2.501,2.131,1.122,3.613,2.584,306.0,564.0
2015-03-12,Santiago,Chile,-70.7501,-33.4667,[-71.2501 -33.9667 -70.2501 -32.9667],2.131,1.301,3.432,2.513,2.136,1.092,3.639,2.606,334.0,552.0
2015-03-13,Santiago,Chile,-70.7501,-33.4667,[-71.2501 -33.9667 -70.2501 -32.9667],2.005,1.282,3.41,2.48,2.158,1.113,3.719,2.678,299.0,555.0
2015-03-14,Santiago,Chile,-70.7501,-33.4667,[-71.2501 -33.9667 -70.2501 -32.9667],2.005,1.282,3.41,2.48,2.192,1.129,3.777,2.705,299.0,509.0
2015-03-15,Santiago,Chile,-70.7501,-33.4667,[-71.2501 -33.9667 -70.2501 -32.9667],1.942,1.21,3.519,2.531,2.212,1.165,3.839,2.77,269.0,518.0
2015-03-16,Santiago,Chile,-70.7501,-33.4667,[-71.2501 -33.9667 -70.2501 -32.9667],1.903,1.21,3.442,2.539,2.213,1.135,3.811,2.758,237.0,516.0
2015-03-17,Santiago,Chile,-70.7501,-33.4667,[-71.2501 -33.9667 -70.2501 -32.9667],1.883,1.154,3.41,2.531,2.313,1.146,3.851,2.815,211.0,526.0
2015-03-18,Santiago,Chile,-70.7501,-33.4667,[-71.2501 -33.9667 -70.2501 -32.9667],1.811,1.105,3.201,2.424,2.196,1.082,3.684,2.745,189.0,529.0
2015-03-19,Santiago,Chile,-70.7501,-33.4667,[-71.2501 -33.9667 -70.2501 -32.9667],1.811,1.154,3.397,2.452,2.241,1.148,3.762,2.795,195.0,519.0
2015-03-20,Santiago,Chile,-70.7501,-33.4667,[-71.2501 -33.9667 -70.2501 -32.9667],1.811,0.963,3.409,2.539,2.246,1.119,3.816,2.811,164.0,521.0
2015-03-21,Santiago,Chile,-70.7501,-33.4667,[-71.2501 -33.9667 -70.2501 -32.9667],1.811,0.984,3.37,2.572,2.258,1.091,3.825,2.815,199.0,513.0
2015-03-22,Santiago,Chile,-70.7501,-33.4667,[-71.2501 -33.9667 -70.2501 -32.9667],2.006,0.908,3.654,2.739,2.389,1.132,3.976,2.95,168.0,527.0
2015-03-23,Santiago,Chile,-70.7501,-33.4667,[-71.2501 -33.9667 -70.2501 -32.9667],2.154,0.984,3.537,2.787,2.402,1.09,3.961,2.934,145.0,517.0
2015-03-24,Santiago,Chile,-70.7501,-33.4667,[-71.2501 -33.9667 -70.2501 -32.9667],2.228,1.057,4.166,3.14,2.402,1.118,4.071,2.955,166.0,534.0
2015-03-25,Santiago,Chile,-70.7501,-33.4667,[-71.2501 -33.9667 -70.2501 -32.9667],2.202,1.073,3.716,3.001,2.431,1.133,4.078,2.973,150.0,525.0
2015-03-26,Santiago,Chile,-70.7501,-33.4667,[-71.2501 -33.9667 -70.2501 -32.9667],2.202,1.073,4.26,3.275,2.572,1.222,4.155,3.071,158.0,526.0
2015-03-27,Santiago,Chile,-70.7501,-33.4667,[-71.2501 -33.9667 -70.2501 -32.9667],2.228,1.286,4.336,3.386,2.736,1.389,4.414,3.273,151.0,527.0
2015-03-28,Santiago,Chile,-70.7501,-33.4667,[-71.2501 -33.9667 -70.2501 -32.9667],2.228,1.224,3.971,3.18,2.772,1.427,4.513,3.318,178.0,515.0
2015-03-29,Santiago,Chile,-70.7501,-33.4667,[-71.2501 -33.9667 -70.2501 -32.9667],2.228,1.224,3.971,3.18,2.902,1.492,4.802,3.541,178.0,559.0
2015-03-30,Santiago,Chile,-70.7501,-33.4667,[-71.2501 -33.9667 -70.2501 -32.9667],2.898,1.286,4.687,3.496,2.984,1.414,4.857,3.571,205.0,555.0
2015-03-31,Santiago,Chile,-70.7501,-33.4667,[-71.2501 -33.9667 -70.2501 -32.9667],2.898,1.286,4.687,3.496,3.029,1.525,4.979,3.671,205.0,565.0
2015-04-01,Santiago,Chile,-70.7501,-33.4667,[-71.2501 -33.9667 -70.2501 -32.9667],3.011,1.377,4.907,3.69,3.051,1.571,5.125,3.74,236.0,559.0
2015-04-02,Santiago,Chile,-70.7501,-33.4667,[-71.2501 -33.9667 -70.2501 -32.9667],3.263,1.377,4.96,3.855,3.203,1.558,5.183,3.834,267.0,567.0
2015-04-03,Santiago,Chile,-70.7501,-33.4667,[-71.2501 -33.9667 -70.2501 -32.9667],3.022,1.286,5.067,3.923,3.177,1.54,5.37,3.893,281.0,571.0
2015-04-04,Santiago,Chile,-70.7501,-33.4667,[-71.2501 -33.9667 -70.2501 -32.9667],3.268,1.33,5.067,3.938,3.278,1.686,5.436,3.989,303.0,562.0
2015-04-05,Santiago,Chile,-70.7501,-33.4667,[-71.2501 -33.9667 -70.2501 -32.9667],3.579,1.436,5.421,4.192,3.387,1.766,5.706,4.165,273.0,562.0
2015-04-06,Santiago,Chile,-70.7501,-33.4667,[-71.2501 -33.9667 -70.2501 -32.9667],3.627,1.826,5.45,4.186,3.443,1.877,5.923,4.225,296.0,554.0
2015-04-07,Santiago,Chile,-70.7501,-33.4667,[-71.2501 -33.9667 -70.2501 -32.9667],3.775,1.826,5.739,4.282,3.502,1.876,6.07,4.259,286.0,568.0
2015-04-08,Santiago,Chile,-70.7501,-33.4667,[-71.2501 -33.9667 -70.2501 -32.9667],3.635,1.718,5.73,4.18,3.588,1.932,6.241,4.39,258.0,559.0
2015-04-09,Santiago,Chile,-70.7501,-33.4667,[-71.2501 -33.9667 -70.2501 -32.9667],3.775,1.718,5.968,4.332,3.749,1.992,6.278,4.453,279.0,575.0
2015-04-10,Santiago,Chile,-70.7501,-33.4667,[-71.2501 -33.9667 -70.2501 -32.9667],3.766,1.765,5.739,4.207,3.881,1.929,6.19,4.506,262.0,564.0
2015-04-11,Santiago,Chile,-70.7501,-33.4667,[-71.2501 -33.9667 -70.2501 -32.9667],3.775,1.92,5.968,4.284,3.847,1.967,6.363,4.534,268.0,564.0
2015-04-12,Santiago,Chile,-70.7501,-33.4667,[-71.2501 -33.9667 -70.2501 -32.9667],3.952,2.072,5.982,4.517,3.932,2.017,6.409,4.588,241.0,566.0
2015-04-13,Santiago,Chile,-70.7501,-33.4667,[-71.2501 -33.9667 -70.2501 -32.9667],3.952,2.072,5.982,4.514,3.747,1.928,6.169,4.373,242.0,558.0
2015-04-14,Santiago,Chile,-70.7501,-33.4667,[-71.2501 -33.9667 -70.2501 -32.9667],3.864,1.929,5.982,4.508,3.791,1.931,6.121,4.431,215.0,562.0
2015-04-15,Santiago,Chile,-70.7501,-33.4667,[-71.2501 -33.9667 -70.2501 -32.9667],3.864,1.929,5.982,4.508,3.783,1.99,6.23,4.502,215.0,516.0
2015-04-16,Santiago,Chile,-70.7501,-33.4667,[-71.2501 -33.9667 -70.2501 -32.9667],3.579,1.92,5.968,4.542,3.74,1.957,6.297,4.584,184.0,528.0
2015-04-17,Santiago,Chile,-70.7501,-33.4667,[-71.2501 -33.9667 -70.2501 -32.9667],3.952,2.088,6.029,4.703,3.941,2.056,6.356,4.778,185.0,525.0
2015-04-18,Santiago,Chile,-70.7501,-33.4667,[-71.2501 -33.9667 -70.2501 -32.9667],4.012,2.301,6.036,4.966,3.937,2.15,6.305,4.885,189.0,531.0
2015-04-19,Santiago,Chile,-70.7501,-33.4667,[-71.2501 -33.9667 -70.2501 -32.9667],4.012,2.275,6.029,4.894,4.085,2.095,6.606,4.992,189.0,531.0
2015-04-20,Santiago,Chile,-70.7501,-33.4667,[-71.2501 -33.9667 -70.2501 -32.9667],4.012,2.301,6.029,5.049,4.178,2.189,6.379,5.028,203.0,521.0
2015-04-21,Santiago,Chile,-70.7501,-33.4667,[-71.2501 -33.9667 -70.2501 -32.9667],3.93,2.588,6.78,5.279,4.016,2.241,6.368,5.005,188.0,523.0
2015-04-22,Santiago,Chile,-70.7501,-33.4667,[-71.2501 -33.9667 -70.2501 -32.9667],3.798,2.13,6.78,5.128,4.033,2.158,6.433,5.018,218.0,515.0
2015-04-23,Santiago,Chile,-70.7501,-33.4667,[-71.2501 -33.9667 -70.2501 -32.9667],3.93,2.403,6.78,5.195,3.986,2.215,6.7,5.117,215.0,528.0
2015-04-24,Santiago,Chile,-70.7501,-33.4667,[-71.2501 -33.9667 -70.2501 -32.9667],3.93,2.588,6.78,5.146,3.987,2.14,6.702,5.053,183.0,519.0
2015-04-25,Santiago,Chile,-70.7501,-33.4667,[-71.2501 -33.9667 -70.2501 -32.9667],4.1,2.603,6.928,5.25,4.079,2.065,7.057,5.082,189.0,536.0
2015-04-26,Santiago,Chile,-70.7501,-33.4667,[-71.2501 -33.9667 -70.2501 -32.9667],4.035,2.588,6.9,5.199,4.044,2.043,7.136,5.089,176.0,528.0
2015-04-27,Santiago,Chile,-70.7501,-33.4667,[-71.2501 -33.9667 -70.2501 -32.9667],4.035,2.252,6.928,5.285,4.04,1.907,7.263,5.188,200.0,526.0
2015-04-28,Santiago,Chile,-70.7501,-33.4667,[-71.2501 -33.9667 -70.2501 -32.9667],4.038,2.403,7.239,5.478,4.163,2.012,7.425,5.319,217.0,523.0
2015-04-29,Santiago,Chile,-70.7501,-33.4667,[-71.2501 -33.9667 -70.2501 -32.9667],4.038,2.143,7.239,5.528,4.205,1.907,7.344,5.343,248.0,516.0
2015-04-30,Santiago,Chile,-70.7501,-33.4667,[-71.2501 -33.9667 -70.2501 -32.9667],4.038,2.143,7.239,5.528,4.062,1.802,7.423,5.223,248.0,559.0
2015-05-01,Santiago,Chile,-70.7501,-33.4667,[-71.2501 -33.9667 -70.2501 -32.9667],4.038,2.143,7.239,5.528,4.092,1.872,7.44,5.301,248.0,553.0
2015-05-02,Santiago,Chile,-70.7501,-33.4667,[-71.2501 -33.9667 -70.2501 -32.9667],3.747,2.026,7.239,5.483,3.876,1.818,7.299,5.192,216.0,564.0
2015-05-03,Santiago,Chile,-70.7501,-33.4667,[-71.2501 -33.9667 -70.2501 -32.9667],3.366,1.72,6.705,4.754,3.941,1.88,7.285,5.127,217.0,562.0
2015-05-04,Santiago,Chile,-70.7501,-33.4667,[-71.2501 -33.9667 -70.2501 -32.9667],3.485,1.699,6.928,4.918,3.869,1.762,7.14,5.067,198.0,569.0
2015-05-05,Santiago,Chile,-70.7501,-33.4667,[-71.2501 -33.9667 -70.2501 -32.9667],3.485,1.699,6.928,4.86,3.805,1.789,7.037,4.962,186.0,570.0
2015-05-06,Santiago,Chile,-70.7501,-33.4667,[-71.2501 -33.9667 -70.2501 -32.9667],3.969,1.739,7.239,5.325,3.897,1.77,7.115,5.089,198.0,558.0
2015-05-07,Santiago,Chile,-70.7501,-33.4667,[-71.2501 -33.9667 -70.2501 -32.9667],4.023,1.604,7.39,5.604,3.872,1.722,7.137,5.107,176.0,556.0
2015-05-08,Santiago,Chile,-70.7501,-33.4667,[-71.2501 -33.9667 -70.2501 -32.9667],4.135,1.983,7.39,5.91,3.961,1.87,7.039,5.214,208.0,553.0
2015-05-09,Santiago,Chile,-70.7501,-33.4667,[-71.2501 -33.9667 -70.2501 -32.9667],4.135,1.983,7.39,5.91,3.996,1.919,7.178,5.306,208.0,567.0
2015-05-10,Santiago,Chile,-70.7501,-33.4667,[-71.2501 -33.9667 -70.2501 -32.9667],4.061,2.074,6.519,5.538,3.923,2.03,6.724,5.256,220.0,556.0
2015-05-11,Santiago,Chile,-70.7501,-33.4667,[-71.2501 -33.9667 -70.2501 -32.9667],4.135,2.074,6.551,5.626,3.839,2.022,6.448,5.189,239.0,571.0
2015-05-12,Santiago,Chile,-70.7501,-33.4667,[-71.2501 -33.9667 -70.2501 -32.9667],4.135,2.218,6.519,5.564,3.838,2.018,6.341,5.066,223.0,565.0
2015-05-13,Santiago,Chile,-70.7501,-33.4667,[-71.2501 -33.9667 -70.2501 -32.9667],4.135,2.143,6.551,5.63,3.779,2.03,6.352,5.121,231.0,564.0
2015-05-14,Santiago,Chile,-70.7501,-33.4667,[-71.2501 -33.9667 -70.2501 -32.9667],4.161,2.348,6.551,5.633,3.818,2.065,6.498,5.195,208.0,559.0
2015-05-15,Santiago,Chile,-70.7501,-33.4667,[-71.2501 -33.9667 -70.2501 -32.9667],4.161,2.319,6.519,5.615,3.946,2.26,6.573,5.31,212.0,553.0
2015-05-16,Santiago,Chile,-70.7501,-33.4667,[-71.2501 -33.9667 -70.2501 -32.9667],4.161,2.319,6.519,5.615,4.128,2.318,6.599,5.274,212.0,557.0
2015-05-17,Santiago,Chile,-70.7501,-33.4667,[-71.2501 -33.9667 -70.2501 -32.9667],4.161,2.319,6.519,5.615,4.16,2.32,6.673,5.36,212.0,511.0
2015-05-18,Santiago,Chile,-70.7501,-33.4667,[-71.2501 -33.9667 -70.2501 -32.9667],5.148,2.847,6.884,6.362,4.396,2.491,6.803,5.518,181.0,520.0
2015-05-19,Santiago,Chile,-70.7501,-33.4667,[-71.2501 -33.9667 -70.2501 -32.9667],5.575,3.079,9.046,6.9,4.697,2.61,7.802,5.861,206.0,519.0
2015-05-20,Santiago,Chile,-70.7501,-33.4667,[-71.2501 -33.9667 -70.2501 -32.9667],5.43,3.06,9.082,6.991,4.758,2.594,8.266,6.097,230.0,528.0
2015-05-21,Santiago,Chile,-70.7501,-33.4667,[-71.2501 -33.9667 -70.2501 -32.9667],5.339,2.847,8.858,6.777,4.69,2.565,8.072,5.952,210.0,528.0
2015-05-22,Santiago,Chile,-70.7501,-33.4667,[-71.2501 -33.9667 -70.2501 -32.9667],5.417,3.191,8.785,6.872,4.75,2.686,8.117,6.027,221.0,519.0
2015-05-23,Santiago,Chile,-70.7501,-33.4667,[-71.2501 -33.9667 -70.2501 -32.9667],5.43,3.205,8.914,6.878,4.662,2.448,8.058,5.873,191.0,516.0
2015-05-24,Santiago,Chile,-70.7501,-33.4667,[-71.2501 -33.9667 -70.2501 -32.9667],5.075,2.348,8.337,6.426,4.597,2.226,7.998,5.764,205.0,509.0
2015-05-25,Santiago,Chile,-70.7501,-33.4667,[-71.2501 -33.9667 -70.2501 -32.9667],5.165,2.307,10.006,7.213,4.826,2.442,8.526,6.009,176.0,523.0
2015-05-26,Santiago,Chile,-70.7501,-33.4667,[-71.2501 -33.9667 -70.2501 -32.9667],5.427,2.517,10.006,7.279,4.996,2.47,8.699,6.123,146.0,514.0
2015-05-27,Santiago,Chile,-70.7501,-33.4667,[-71.2501 -33.9667 -70.2501 -32.9667],5.828,2.941,10.187,7.65,5.089,2.703,8.554,6.147,162.0,529.0
2015-05-28,Santiago,Chile,-70.7501,-33.4667,[-71.2501 -33.9667 -70.2501 -32.9667],5.727,2.635,10.187,7.525,5.086,2.638,8.465,6.103,136.0,523.0
2015-05-29,Santiago,Chile,-70.7501,-33.4667,[-71.2501 -33.9667 -70.2501 -32.9667],7.074,3.191,11.258,8.266,5.436,2.795,8.82,6.33,145.0,522.0
2015-05-30,Santiago,Chile,-70.7501,-33.4667,[-71.2501 -33.9667 -70.2501 -32.9667],7.074,3.282,11.717,8.314,5.468,2.776,9.104,6.433,157.0,520.0
2015-05-31,Santiago,Chile,-70.7501,-33.4667,[-71.2501 -33.9667 -70.2501 -32.9667],5.395,2.307,10.187,7.513,5.139,2.491,9.21,6.407,188.0,515.0
2015-06-01,Santiago,Chile,-70.7501,-33.4667,[-71.2501 -33.9667 -70.2501 -32.9667],5.395,2.307,10.187,7.513,5.01,2.579,9.058,6.312,188.0,560.0
2015-06-02,Santiago,Chile,-70.7501,-33.4667,[-71.2501 -33.9667 -70.2501 -32.9667],5.348,2.259,10.187,7.454,4.98,2.493,8.997,6.316,191.0,554.0
2015-06-03,Santiago,Chile,-70.7501,-33.4667,[-71.2501 -33.9667 -70.2501 -32.9667],4.905,2.081,9.425,6.888,4.796,2.438,8.627,5.962,160.0,564.0
2015-06-04,Santiago,Chile,-70.7501,-33.4667,[-71.2501 -33.9667 -70.2501 -32.9667],4.905,2.081,7.729,6.324,4.883,2.391,8.48,6.132,158.0,563.0
2015-06-05,Santiago,Chile,-70.7501,-33.4667,[-71.2501 -33.9667 -70.2501 -32.9667],5.165,2.13,9.204,6.853,5.094,2.449,9.005,6.446,189.0,572.0
2015-06-06,Santiago,Chile,-70.7501,-33.4667,[-71.2501 -33.9667 -70.2501 -32.9667],4.851,1.975,7.455,6.329,5.085,2.415,8.525,6.331,195.0,573.0
2015-06-07,Santiago,Chile,-70.7501,-33.4667,[-71.2501 -33.9667 -70.2501 -32.9667],4.457,1.945,7.418,6.119,4.851,2.218,8.412,6.259,211.0,562.0
2015-06-08,Santiago,Chile,-70.7501,-33.4667,[-71.2501 -33.9667 -70.2501 -32.9667],4.905,2.279,7.729,6.499,4.86,2.315,8.412,6.359,204.0,560.0
2015-06-09,Santiago,Chile,-70.7501,-33.4667,[-71.2501 -33.9667 -70.2501 -32.9667],5.136,2.624,7.805,6.599,4.808,2.414,8.363,6.349,236.0,554.0
2015-06-10,Santiago,Chile,-70.7501,-33.4667,[-71.2501 -33.9667 -70.2501 -32.9667],5.136,2.624,7.805,6.647,4.763,2.432,8.281,6.406,233.0,566.0
2015-06-11,Santiago,Chile,-70.7501,-33.4667,[-71.2501 -33.9667 -70.2501 -32.9667],4.741,2.61,7.35,5.971,4.451,2.26,8.119,6.058,238.0,556.0
2015-06-12,Santiago,Chile,-70.7501,-33.4667,[-71.2501 -33.9667 -70.2501 -32.9667],4.905,2.691,7.495,6.093,4.61,2.395,8.338,6.171,268.0,573.0
2015-06-13,Santiago,Chile,-70.7501,-33.4667,[-71.2501 -33.9667 -70.2501 -32.9667],4.697,2.533,7.335,5.625,4.598,2.341,8.453,6.115,263.0,567.0
2015-06-14,Santiago,Chile,-70.7501,-33.4667,[-71.2501 -33.9667 -70.2501 -32.9667],4.457,2.506,7.335,5.525,4.434,2.348,8.422,6.07,247.0,566.0
2015-06-15,Santiago,Chile,-70.7501,-33.4667,[-71.2501 -33.9667 -70.2501 -32.9667],4.851,2.811,7.495,5.989,4.64,2.452,8.598,6.314,231.0,564.0